EN

Hourly Weather Traunreut

Today, 25 January, Monday

Time Temperature Precipitation Wind Pressure Humidity
00:00 -6°C° 0 mm 2 mps 701 mmHg 79%
01:00 -6°C° 0 mm 1 mps 701 mmHg 81%
02:00 -6°C° 0 mm 1 mps 701 mmHg 79%
03:00 -6°C° 0 mm 1 mps 701 mmHg 77%
04:00 -6°C° 0 mm 1 mps 701 mmHg 76%
05:00 -6°C° 0 mm 1 mps 701 mmHg 75%
06:00 -6°C° 0 mm 1 mps 700 mmHg 74%
07:00 -7°C° 0 mm 2 mps 700 mmHg 74%
08:00 -4°C° 0 mm 1 mps 701 mmHg 71%
09:00 -3°C° 0 mm 1 mps 701 mmHg 69%
10:00 -2°C° 0 mm 1 mps 701 mmHg 66%
11:00 -1°C° 0.1 mm 1 mps 701 mmHg 71%
12:00 -1°C° 0.1 mm 1 mps 701 mmHg 75%
13:00 0°C° 0.1 mm 1 mps 701 mmHg 80%
14:00 -2°C° 0.3 mm 2 mps 701 mmHg 83%
15:00 -2°C° 0.3 mm 2 mps 702 mmHg 87%
16:00 -1°C° 0.3 mm 2 mps 702 mmHg 90%
17:00 -2°C° 0.4 mm 2 mps 703 mmHg 92%
18:00 -2°C° 0.4 mm 3 mps 703 mmHg 94%
19:00 -2°C° 0.4 mm 3 mps 704 mmHg 96%
20:00 -3°C° 0.4 mm 2 mps 705 mmHg 96%
21:00 -3°C° 0.4 mm 2 mps 706 mmHg 97%
22:00 -3°C° 0.4 mm 2 mps 706 mmHg 97%
23:00 -3°C° 0.5 mm 2 mps 707 mmHg 97%

Tomorrow, 26 January, Tuesday

Time Temperature Precipitation Wind Pressure Humidity
00:00 -4°C° 0.5 mm 3 mps 707 mmHg 97%
01:00 -4°C° 0.5 mm 3 mps 708 mmHg 96%
02:00 -4°C° 0.8 mm 3 mps 708 mmHg 96%
03:00 -4°C° 0.8 mm 4 mps 709 mmHg 96%
04:00 -4°C° 0.8 mm 4 mps 709 mmHg 95%
05:00 -5°C° 0.4 mm 4 mps 709 mmHg 94%
06:00 -5°C° 0.4 mm 4 mps 710 mmHg 93%
07:00 -5°C° 0.4 mm 4 mps 710 mmHg 92%
08:00 -5°C° 0.1 mm 4 mps 710 mmHg 89%
09:00 -5°C° 0.1 mm 5 mps 711 mmHg 86%
10:00 -5°C° 0.1 mm 5 mps 711 mmHg 83%
11:00 -5°C° 0.6 mm 6 mps 711 mmHg 85%
12:00 -5°C° 0.6 mm 6 mps 711 mmHg 88%
13:00 -6°C° 0.6 mm 7 mps 710 mmHg 91%
14:00 -4°C° 0.4 mm 7 mps 711 mmHg 91%
15:00 -4°C° 0.4 mm 7 mps 711 mmHg 91%
16:00 -4°C° 0.4 mm 7 mps 711 mmHg 91%
17:00 -5°C° 0.5 mm 6 mps 711 mmHg 92%
18:00 -5°C° 0.5 mm 6 mps 712 mmHg 94%
19:00 -5°C° 0.5 mm 6 mps 712 mmHg 95%
20:00 -5°C° 0.7 mm 5 mps 713 mmHg 94%
21:00 -5°C° 0.7 mm 5 mps 714 mmHg 94%
22:00 -5°C° 0.7 mm 5 mps 714 mmHg 94%
23:00 -5°C° 0.4 mm 5 mps 714 mmHg 94%

Day after tomorrow, 27 January, Wednesday

Time Temperature Precipitation Wind Pressure Humidity
00:00 -4°C° 0.4 mm 4 mps 715 mmHg 94%
01:00 -5°C° 0.4 mm 4 mps 715 mmHg 94%
02:00 -5°C° 0.2 mm 4 mps 715 mmHg 94%
03:00 -5°C° 0.2 mm 4 mps 715 mmHg 94%
04:00 -5°C° 0.2 mm 3 mps 715 mmHg 95%
05:00 -6°C° 0.1 mm 3 mps 715 mmHg 93%
06:00 -6°C° 0.1 mm 3 mps 715 mmHg 91%
07:00 -7°C° 0.1 mm 3 mps 715 mmHg 90%
08:00 -6°C° 0 mm 3 mps 715 mmHg 87%
09:00 -4°C° 0 mm 2 mps 714 mmHg 85%
10:00 -3°C° 0 mm 2 mps 714 mmHg 82%
11:00 -3°C° 0 mm 2 mps 714 mmHg 82%
12:00 -2°C° 0 mm 2 mps 714 mmHg 81%
13:00 -1°C° 0 mm 2 mps 714 mmHg 80%
14:00 -1°C° 0 mm 2 mps 713 mmHg 82%
15:00 -1°C° 0 mm 2 mps 713 mmHg 83%
16:00 -1°C° 0 mm 2 mps 712 mmHg 85%
17:00 -2°C° 0.1 mm 2 mps 713 mmHg 88%
18:00 -2°C° 0.1 mm 2 mps 713 mmHg 91%
19:00 -3°C° 0.1 mm 2 mps 713 mmHg 94%
20:00 -3°C° 0.3 mm 2 mps 713 mmHg 95%
21:00 -3°C° 0.3 mm 2 mps 713 mmHg 96%
22:00 -3°C° 0.3 mm 2 mps 712 mmHg 96%
23:00 -3°C° 0.2 mm 2 mps 712 mmHg 97%

28 January, Thursday

Time Temperature Precipitation Wind Pressure Humidity
00:00 -2°C° 0.2 mm 2 mps 712 mmHg 97%
01:00 -2°C° 0.2 mm 2 mps 712 mmHg 97%
02:00 -2°C° 0.5 mm 2 mps 711 mmHg 97%
03:00 -1°C° 0.5 mm 2 mps 711 mmHg 98%
04:00 -1°C° 0.5 mm 2 mps 711 mmHg 98%
05:00 -1°C° 1 mm 2 mps 710 mmHg 98%
06:00 +1°C° 1 mm 2 mps 710 mmHg 98%
07:00 +1°C° 1 mm 2 mps 709 mmHg 98%
08:00 0°C° 1.2 mm 3 mps 709 mmHg 99%
09:00 0°C° 1.2 mm 3 mps 708 mmHg 99%
10:00 +1°C° 1.2 mm 3 mps 707 mmHg 99%
11:00 +1°C° 1.6 mm 3 mps 707 mmHg 99%
12:00 +1°C° 1.6 mm 3 mps 706 mmHg 99%
13:00 0°C° 1.6 mm 4 mps 705 mmHg 99%
14:00 +1°C° 2 mm 4 mps 705 mmHg 99%
15:00 +1°C° 2 mm 5 mps 705 mmHg 98%
16:00 +2°C° 2 mm 5 mps 705 mmHg 98%
17:00 +2°C° 1 mm 5 mps 705 mmHg 98%
18:00 +2°C° 1 mm 5 mps 706 mmHg 97%
19:00 +2°C° 1 mm 6 mps 706 mmHg 97%
20:00 +3°C° 0.3 mm 5 mps 706 mmHg 97%
21:00 +3°C° 0.3 mm 5 mps 707 mmHg 96%
22:00 +3°C° 0.3 mm 5 mps 707 mmHg 96%
23:00 +3°C° 0.1 mm 4 mps 708 mmHg 96%

29 January, Friday

Time Temperature Precipitation Wind Pressure Humidity
00:00 +3°C° 0.1 mm 4 mps 708 mmHg 96%
01:00 +3°C° 0.1 mm 4 mps 708 mmHg 96%
02:00 +3°C° 0.2 mm 4 mps 708 mmHg 95%
03:00 +3°C° 0.2 mm 4 mps 707 mmHg 95%
04:00 +3°C° 0.2 mm 4 mps 707 mmHg 95%
05:00 +3°C° 0.1 mm 3 mps 706 mmHg 94%
06:00 +3°C° 0.1 mm 3 mps 705 mmHg 93%
07:00 +2°C° 0.1 mm 3 mps 704 mmHg 93%
08:00 +3°C° 0.2 mm 3 mps 704 mmHg 92%
09:00 +3°C° 0.2 mm 3 mps 704 mmHg 91%
10:00 +4°C° 0.2 mm 4 mps 703 mmHg 90%
11:00 +4°C° 0.8 mm 4 mps 703 mmHg 92%
12:00 +4°C° 0.8 mm 4 mps 703 mmHg 94%
13:00 +4°C° 0.8 mm 4 mps 703 mmHg 96%
14:00 +4°C° 1.6 mm 4 mps 703 mmHg 96%
15:00 +4°C° 1.6 mm 4 mps 703 mmHg 96%
16:00 +4°C° 1.6 mm 3 mps 703 mmHg 96%
17:00 +4°C° 1.7 mm 3 mps 703 mmHg 96%
18:00 +3°C° 1.7 mm 3 mps 703 mmHg 96%
19:00 +3°C° 1.7 mm 3 mps 703 mmHg 96%
20:00 +4°C° 2.1 mm 2 mps 703 mmHg 97%
21:00 +3°C° 2.1 mm 2 mps 703 mmHg 97%
22:00 +4°C° 2.1 mm 1 mps 702 mmHg 98%
23:00 +4°C° 1.9 mm 1 mps 701 mmHg 98%

30 January, Saturday

Time Temperature Precipitation Wind Pressure Humidity
00:00 +3°C° 1.9 mm 2 mps 701 mmHg 98%
01:00 +3°C° 1.9 mm 2 mps 700 mmHg 98%
02:00 +3°C° 0.6 mm 2 mps 699 mmHg 97%
03:00 +4°C° 0.6 mm 2 mps 698 mmHg 96%
04:00 +4°C° 0.6 mm 2 mps 697 mmHg 94%
05:00 +3°C° 0.1 mm 3 mps 697 mmHg 92%
06:00 +3°C° 0.1 mm 4 mps 696 mmHg 91%
07:00 +4°C° 0.1 mm 4 mps 696 mmHg 89%
08:00 +2°C° 0.5 mm 6 mps 697 mmHg 90%
09:00 +2°C° 0.5 mm 7 mps 698 mmHg 91%
10:00 0°C° 0.5 mm 8 mps 699 mmHg 92%
11:00 0°C° 1.3 mm 7 mps 700 mmHg 94%
12:00 0°C° 1.3 mm 5 mps 701 mmHg 95%
13:00 +1°C° 1.3 mm 3 mps 702 mmHg 97%
14:00 0°C° 0.9 mm 3 mps 703 mmHg 96%
15:00 0°C° 0.9 mm 3 mps 703 mmHg 95%
16:00 -1°C° 0.9 mm 2 mps 704 mmHg 94%
17:00 -1°C° 0.6 mm 2 mps 705 mmHg 94%
18:00 -2°C° 0.6 mm 2 mps 706 mmHg 94%
19:00 -2°C° 0.6 mm 2 mps 707 mmHg 94%
20:00 -2°C° 0.1 mm 2 mps 708 mmHg 93%
21:00 -3°C° 0.1 mm 2 mps 709 mmHg 92%
22:00 -3°C° 0.1 mm 2 mps 709 mmHg 91%
23:00 -4°C° 0 mm 2 mps 710 mmHg 90%
Show more

We Need Your Consent

Meteoprog and our Service Providers may store and access personal data such as cookies, device identifiers or other similar technologies on your device and process such data to personalise content and ads, as well as provide social media features and to analyse the traffic.

  • Store and/or access information on your device

    Cookies, device identifiers or other information can be stored or accessed on your device for the purposes indicated above.

  • Personalised ads and content, ad and content measurement, audience insights, and products development

    Ads and content can be personalised based on a profile. More data can be added to better personalise ads and content. Ad and content performance can be measured. Insights about the audience who saw the ads and content can be derived. Such data can be used to develop or improve user’s experience, systems and software.

By clicking ‘I Agree’ you will allow the use of indicated cookies, device identifiers, web beacons or other similar technologies. Your settings can be changed in the browser on your device.

For certain purposes, legitimate interests may be relied on, rather than consent. You can read more about this in our Privacy and Cookie Policy.